Location: Antioch
(38.0049°N, 121.8058°W)
Time: 03:37:28
(UTC+00:00)

Cosmos 1354 Rocket - Pass Details

Date: 25 May 2026
Orbit: 761 x 778 km, 74.0° (Epoch: 9 June)

Event Time Altitude Azimuth Distance (km) Brightness Sun altitude
Rises 04:16:17 0° 347° (NNW) 3,233 8.1 -10.4°
Reaches altitude 10° 04:18:44 10° 353° (N) 2,302 7.2 -10.8°
Maximum altitude 04:23:48 49° 68° (ENE) 973 4.3 -11.6°
Enters shadow 04:27:41 17° 139° (SE) 1,875 5.4 -12.2°
